Hourly Data Report for October 25, 2019

All times are specified in Local Standard Time (LST). Add 1 hour to adjust for Daylight Saving Time where and when it is observed.

EUREKA CLIMATE
NUNAVUT
Current Station Operator: ECCC - MSC

79°59'21.000" N
85°56'02.000" W
10.00 m
2401199
71613
NEK

Download Data

Hourly Data (October 2019)
Hourly Data Report for October 25, 2019
TIME Temp Definition
°C
Dew Point Definition
°C
Rel Hum Definition
%
Wind Dir Definition
10's deg

Wind Spd Definition
km/h
Visibility Definition
km
Stn Press Definition
kPa
Hmdx Definition


Wind Chill Definition


Weather Definition


00:00 -5.6 -7.9 84 30 14   99.45   -11 LegendNANA
01:00 -5.1 -7.8 81 1 30   99.37   -13 LegendNANA
02:00 -5.1 -7.6 83 36 31   99.34   -13 LegendNANA
03:00 -5.4 -7.4 86 36 28   99.32   -13 LegendNANA
04:00 -5.1 -7.0 86 36 25   99.32   -12 LegendNANA
05:00 -5.0 -6.8 87 36 17   99.31   -11 LegendNANA
06:00 -4.7 -6.6 86 35 20   99.30   -11 LegendNANA
07:00 -5.4 -6.8 89 36 20   99.30   -12 LegendNANA
08:00 -6.3 -7.2 93 30 15   99.34   -12 LegendNANA
09:00 -6.5 -7.1 95 31 12   99.38   -12 LegendNANA
10:00 -6.3 -6.7 97 30 16   99.38   -12 LegendNANA
11:00 -6.4 -6.8 97 30 14   99.41   -12 LegendNANA
12:00 -6.3 -6.6 97 29 17   99.43   -13 LegendNANA
13:00 -6.2 -6.5 97 30 14   99.48   -12 LegendNANA
14:00 -6.3 -6.7 97 30 10   99.53   -11 LegendNANA
15:00 -6.6 -7.0 97 31 6   99.61   -10 LegendNANA
16:00 -6.9 -7.3 97 10 9   99.66   -11 LegendNANA
17:00 -6.6 -7.1 96 14 18   99.74   -13 LegendNANA
18:00 -7.6 -8.1 96 13 15   99.83   -14 LegendNANA
19:00 -7.3 -8.2 93 15 20   99.92   -14 LegendNANA
20:00 -8.3 -9.5 92 14 24   99.98   -16 LegendNANA
21:00 -8.9 -10.1 91 11 20   100.05   -16 LegendNANA
22:00 -9.4 -10.6 91 11 20   100.12   -17 LegendNANA
23:00 -9.8 -11.0 91 14 23   100.19   -18 LegendNANA

Notes on Data Quality.

Legend

  • E = Estimated
  • M = Missing
  • NA = Not Available
Date modified: